Back to catalog

STARLINK-36642

AliveCommunicationsSSO
NORAD 67659·PAYLOAD·🇺🇸 United States

Launched Feb 2, 2026 from Vandenberg Space Force Base

Loading…

Next Passes (next 24 hours)

TLE

FreshSource: CelesTrak SupGP

Epoch: Sep 14, 2026, 15:24 UTC

1 67659C 26022M   26257.64215278 -.00030236  00000+0 -93856-3 0  2578
2 67659  97.2840 289.2838 0001388 105.9368  90.6716 15.33456115    11

Track STARLINK-36642 in real time with AllMySat

Download on the App Store